sat.trackr.live / text

‹ back to catalog

STARLINK-31318

NORAD 58885 · 2024-020K

PAYLOAD ACTIVE UNKNOWN

§ Identity

Operator
Country
US
Launch date
2024-01-29
Launch site
AFWTR
Launch vehicle
Mass (kg)
RCS (m²)

Purposes: comms

External: N2YO · Heavens-Above · Gunter

§ Orbital elements

Epoch: 2026-05-23T22:48:57.830112Z

Period
94.01 min
Inclination
53.1613°
Eccentricity
0.0001094
Mean motion
15.31704434 rev/d
Perigee alt
470.0 km
Apogee alt
471.5 km
Semi-major
6,848.9 km
B*
3.0199e-5
RAAN
332.8491°
Arg perigee
85.5653°
Mean anomaly
274.5473°
Rev number
12,959

§ Raw data

STARLINK-313181 58885U 24020K   26143.95066933  .00000572  00000+0  30199-4 0  99982 58885  53.1613 332.8491 0001094  85.5653 274.5473 15.31704434129591

JSON: /api/v1/satellites/58885 · /tle

For live sub-satellite position, see the globe view (requires WebGL).

§ Visibility from observer

Set your observer location to see the next 7 days of passes ≥ 10°. The values pass through the URL so the page stays shareable.

No JS? Fill the form by hand. The geolocation button needs JavaScript.